Year,Month,Day,Hour,Minute,Value (Times are PST for temperature in C)
2008,08,23,00,00,14.10
2008,08,23,00,01,14.00
2008,08,23,00,02,14.00
2008,08,23,00,03,13.90
2008,08,23,00,04,13.90
2008,08,23,00,05,13.90
2008,08,23,00,06,13.90
2008,08,23,00,07,13.90
2008,08,23,00,08,13.80
2008,08,23,00,09,13.80
2008,08,23,00,10,13.80
2008,08,23,00,11,13.80
2008,08,23,00,12,13.80
2008,08,23,00,13,13.80
2008,08,23,00,14,13.80
2008,08,23,00,15,13.80
2008,08,23,00,16,13.80
2008,08,23,00,17,13.80
2008,08,23,00,18,13.80
2008,08,23,00,19,13.80
2008,08,23,00,20,13.80
2008,08,23,00,21,13.80
2008,08,23,00,22,13.80
2008,08,23,00,23,13.90
2008,08,23,00,24,13.90
2008,08,23,00,25,13.90
2008,08,23,00,26,13.90
2008,08,23,00,27,13.90
2008,08,23,00,28,14.00
2008,08,23,00,29,14.00
2008,08,23,00,30,14.00
2008,08,23,00,31,14.10
2008,08,23,00,32,14.10
2008,08,23,00,33,14.10
2008,08,23,00,34,14.10
2008,08,23,00,35,14.10
2008,08,23,00,36,14.10
2008,08,23,00,37,14.20
2008,08,23,00,38,14.20
2008,08,23,00,39,14.20
2008,08,23,00,40,14.20
2008,08,23,00,41,14.20
2008,08,23,00,42,14.20
2008,08,23,00,43,14.20
2008,08,23,00,44,14.20
2008,08,23,00,45,14.20
2008,08,23,00,46,14.20
2008,08,23,00,47,14.30
2008,08,23,00,48,14.30
2008,08,23,00,49,14.30
2008,08,23,00,50,14.30
2008,08,23,00,51,14.40
2008,08,23,00,52,14.40
2008,08,23,00,53,14.50
2008,08,23,00,54,14.50
2008,08,23,00,55,14.60
2008,08,23,00,56,14.60
2008,08,23,00,57,14.70
2008,08,23,00,58,14.70
2008,08,23,00,59,14.70
2008,08,23,01,00,14.80
2008,08,23,01,01,14.80
2008,08,23,01,02,14.80
2008,08,23,01,03,14.80
2008,08,23,01,04,14.80
2008,08,23,01,05,14.80
2008,08,23,01,06,14.80
2008,08,23,01,07,14.80
2008,08,23,01,08,14.80
2008,08,23,01,09,14.90
2008,08,23,01,10,14.90
2008,08,23,01,11,14.90
2008,08,23,01,12,14.90
2008,08,23,01,13,14.90
2008,08,23,01,14,14.90
2008,08,23,01,15,14.90
2008,08,23,01,16,15.00
2008,08,23,01,17,15.00
2008,08,23,01,18,15.00
2008,08,23,01,19,15.00
2008,08,23,01,20,15.00
2008,08,23,01,21,15.00
2008,08,23,01,22,15.00
2008,08,23,01,23,15.00
2008,08,23,01,24,15.00
2008,08,23,01,25,15.00
2008,08,23,01,26,15.00
2008,08,23,01,27,15.00
2008,08,23,01,28,15.00
2008,08,23,01,29,15.00
2008,08,23,01,30,15.00
2008,08,23,01,31,15.00
2008,08,23,01,32,15.00
2008,08,23,01,33,15.00
2008,08,23,01,34,15.00
2008,08,23,01,35,15.00
2008,08,23,01,36,15.00
2008,08,23,01,37,15.00
2008,08,23,01,38,15.00
2008,08,23,01,39,15.00
2008,08,23,01,40,15.00
2008,08,23,01,41,15.00
2008,08,23,01,42,15.10
2008,08,23,01,43,15.10
2008,08,23,01,44,15.10
2008,08,23,01,45,15.10
2008,08,23,01,46,15.10
2008,08,23,01,47,15.10
2008,08,23,01,48,15.10
2008,08,23,01,49,15.10
2008,08,23,01,50,15.10
2008,08,23,01,51,15.10
2008,08,23,01,52,15.10
2008,08,23,01,53,15.10
2008,08,23,01,54,15.10
2008,08,23,01,55,15.10
2008,08,23,01,56,15.10
2008,08,23,01,57,15.10
2008,08,23,01,58,15.10
2008,08,23,01,59,15.10
2008,08,23,02,00,15.10
2008,08,23,02,01,15.20
2008,08,23,02,02,15.20
2008,08,23,02,03,15.20
2008,08,23,02,04,15.20
2008,08,23,02,05,15.20
2008,08,23,02,06,15.20
2008,08,23,02,07,15.20
2008,08,23,02,08,15.20
2008,08,23,02,09,15.20
2008,08,23,02,10,15.30
2008,08,23,02,11,15.30
2008,08,23,02,12,15.30
2008,08,23,02,13,15.30
2008,08,23,02,14,15.30
2008,08,23,02,15,15.30
2008,08,23,02,16,15.30
2008,08,23,02,17,15.30
2008,08,23,02,18,15.20
2008,08,23,02,19,15.20
2008,08,23,02,20,15.20
2008,08,23,02,21,15.20
2008,08,23,02,22,15.20
2008,08,23,02,23,15.10
2008,08,23,02,24,15.10
2008,08,23,02,25,15.10
2008,08,23,02,26,15.10
2008,08,23,02,27,15.20
2008,08,23,02,28,15.20
2008,08,23,02,29,15.20
2008,08,23,02,30,15.20
2008,08,23,02,31,15.20
2008,08,23,02,32,15.20
2008,08,23,02,33,15.20
2008,08,23,02,34,15.20
2008,08,23,02,35,15.20
2008,08,23,02,36,15.20
2008,08,23,02,37,15.20
2008,08,23,02,38,15.20
2008,08,23,02,39,15.20
2008,08,23,02,40,15.20
2008,08,23,02,41,15.20
2008,08,23,02,42,15.20
2008,08,23,02,43,15.30
2008,08,23,02,44,15.30
2008,08,23,02,45,15.30
2008,08,23,02,46,15.30
2008,08,23,02,47,15.30
2008,08,23,02,48,15.30
2008,08,23,02,49,15.30
2008,08,23,02,50,15.40
2008,08,23,02,51,15.40
2008,08,23,02,52,15.40
2008,08,23,02,53,15.40
2008,08,23,02,54,15.40
2008,08,23,02,55,15.40
2008,08,23,02,56,15.40
2008,08,23,02,57,15.50
2008,08,23,02,58,15.50
2008,08,23,02,59,15.50
2008,08,23,03,00,15.50
2008,08,23,03,01,15.50
2008,08,23,03,02,15.60
2008,08,23,03,03,15.60
2008,08,23,03,04,15.60
2008,08,23,03,05,15.60
2008,08,23,03,06,15.60
2008,08,23,03,07,15.60
2008,08,23,03,08,15.60
2008,08,23,03,09,15.50
2008,08,23,03,10,15.50
2008,08,23,03,11,15.40
2008,08,23,03,12,15.30
2008,08,23,03,13,15.10
2008,08,23,03,14,15.00
2008,08,23,03,15,14.60
2008,08,23,03,16,14.40
2008,08,23,03,17,14.10
2008,08,23,03,18,13.90
2008,08,23,03,19,13.80
2008,08,23,03,20,13.60
2008,08,23,03,21,13.50
2008,08,23,03,22,13.30
2008,08,23,03,23,13.30
2008,08,23,03,24,13.20
2008,08,23,03,25,13.10
2008,08,23,03,26,13.00
2008,08,23,03,27,12.90
2008,08,23,03,28,12.90
2008,08,23,03,29,12.80
2008,08,23,03,30,12.80
2008,08,23,03,31,12.70
2008,08,23,03,32,12.70
2008,08,23,03,33,12.60
2008,08,23,03,34,12.60
2008,08,23,03,35,12.60
2008,08,23,03,36,12.50
2008,08,23,03,37,12.50
2008,08,23,03,38,12.50
2008,08,23,03,39,12.50
2008,08,23,03,40,12.50
2008,08,23,03,41,12.60
2008,08,23,03,42,12.60
2008,08,23,03,43,12.60
2008,08,23,03,44,12.60
2008,08,23,03,45,12.60
2008,08,23,03,46,12.60
2008,08,23,03,47,12.60
2008,08,23,03,48,12.60
2008,08,23,03,49,12.60
2008,08,23,03,50,12.60
2008,08,23,03,51,12.60
2008,08,23,03,52,12.60
2008,08,23,03,53,12.60
2008,08,23,03,54,12.50
2008,08,23,03,55,12.50
2008,08,23,03,56,12.50
2008,08,23,03,57,12.50
2008,08,23,03,58,12.50
2008,08,23,03,59,12.50
2008,08,23,04,00,12.50
2008,08,23,04,01,12.50
2008,08,23,04,02,12.50
2008,08,23,04,03,12.50
2008,08,23,04,04,12.40
2008,08,23,04,05,12.40
2008,08,23,04,06,12.40
2008,08,23,04,07,12.40
2008,08,23,04,08,12.40
2008,08,23,04,09,12.30
2008,08,23,04,10,12.20
2008,08,23,04,11,12.20
2008,08,23,04,12,12.20
2008,08,23,04,13,12.20
2008,08,23,04,14,12.20
2008,08,23,04,15,12.20
2008,08,23,04,16,12.20
2008,08,23,04,17,12.10
2008,08,23,04,18,12.10
2008,08,23,04,19,12.10
2008,08,23,04,20,12.10
2008,08,23,04,21,12.10
2008,08,23,04,22,12.10
2008,08,23,04,23,12.10
2008,08,23,04,24,12.10
2008,08,23,04,25,12.10
2008,08,23,04,26,12.10
2008,08,23,04,27,12.10
2008,08,23,04,28,12.10
2008,08,23,04,29,12.10
2008,08,23,04,30,12.10
2008,08,23,04,31,12.10
2008,08,23,04,32,12.10
2008,08,23,04,33,12.10
2008,08,23,04,34,12.10
2008,08,23,04,35,12.10
2008,08,23,04,36,12.10
2008,08,23,04,37,12.10
2008,08,23,04,38,12.10
2008,08,23,04,39,12.10
2008,08,23,04,40,12.10
2008,08,23,04,41,12.10
2008,08,23,04,42,12.10
2008,08,23,04,43,12.20
2008,08,23,04,44,12.20
2008,08,23,04,45,12.20
2008,08,23,04,46,12.20
2008,08,23,04,47,12.20
2008,08,23,04,48,12.30
2008,08,23,04,49,12.30
2008,08,23,04,50,12.30
2008,08,23,04,51,12.30
2008,08,23,04,52,12.30
2008,08,23,04,53,12.30
2008,08,23,04,54,12.40
2008,08,23,04,55,12.40
2008,08,23,04,56,12.40
2008,08,23,04,57,12.40
2008,08,23,04,58,12.50
2008,08,23,04,59,12.50
2008,08,23,05,00,12.50
2008,08,23,05,01,12.60
2008,08,23,05,02,12.60
2008,08,23,05,03,12.60
2008,08,23,05,04,12.60
2008,08,23,05,05,12.60
2008,08,23,05,06,12.60
2008,08,23,05,07,12.60
2008,08,23,05,08,12.60
2008,08,23,05,09,12.70
2008,08,23,05,10,12.70
2008,08,23,05,11,12.70
2008,08,23,05,12,12.80
2008,08,23,05,13,12.80
2008,08,23,05,14,12.90
2008,08,23,05,15,12.90
2008,08,23,05,16,13.00
2008,08,23,05,17,13.00
2008,08,23,05,18,13.00
2008,08,23,05,19,13.10
2008,08,23,05,20,13.10
2008,08,23,05,21,13.10
2008,08,23,05,22,13.10
2008,08,23,05,23,13.10
2008,08,23,05,24,13.10
2008,08,23,05,25,13.10
2008,08,23,05,26,13.10
2008,08,23,05,27,13.10
2008,08,23,05,28,13.00
2008,08,23,05,29,13.00
2008,08,23,05,30,13.00
2008,08,23,05,31,13.00
2008,08,23,05,32,13.00
2008,08,23,05,33,13.00
2008,08,23,05,34,13.00
2008,08,23,05,35,13.00
2008,08,23,05,36,13.00
2008,08,23,05,37,13.10
2008,08,23,05,38,13.10
2008,08,23,05,39,13.10
2008,08,23,05,40,13.10
2008,08,23,05,41,13.10
2008,08,23,05,42,13.10
2008,08,23,05,43,13.10
2008,08,23,05,44,13.20
2008,08,23,05,45,13.20
2008,08,23,05,46,13.20
2008,08,23,05,47,13.20
2008,08,23,05,48,13.10
2008,08,23,05,49,13.10
2008,08,23,05,50,13.10
2008,08,23,05,51,13.10
2008,08,23,05,52,13.10
2008,08,23,05,53,13.00
2008,08,23,05,54,13.00
2008,08,23,05,55,12.90
2008,08,23,05,56,12.90
2008,08,23,05,57,12.90
2008,08,23,05,58,12.80
2008,08,23,05,59,12.80
2008,08,23,06,00,12.80
2008,08,23,06,01,12.80
2008,08,23,06,02,12.80
2008,08,23,06,03,12.80
2008,08,23,06,04,12.80
2008,08,23,06,05,12.80
2008,08,23,06,06,12.80
2008,08,23,06,07,12.80
2008,08,23,06,08,12.80
2008,08,23,06,09,12.80
2008,08,23,06,10,12.80
2008,08,23,06,11,12.80
2008,08,23,06,12,12.80
2008,08,23,06,13,12.90
2008,08,23,06,14,12.90
2008,08,23,06,15,12.90
2008,08,23,06,16,12.90
2008,08,23,06,17,12.90
2008,08,23,06,18,13.00
2008,08,23,06,19,13.00
2008,08,23,06,20,13.10
2008,08,23,06,21,13.10
2008,08,23,06,22,13.10
2008,08,23,06,23,13.10
2008,08,23,06,24,13.20
2008,08,23,06,25,13.20
2008,08,23,06,26,13.20
2008,08,23,06,27,13.20
2008,08,23,06,28,13.30
2008,08,23,06,29,13.30
2008,08,23,06,30,13.30
2008,08,23,06,31,13.30
2008,08,23,06,32,13.30
2008,08,23,06,33,13.30
2008,08,23,06,34,13.30
2008,08,23,06,35,13.30
2008,08,23,06,36,13.30
2008,08,23,06,37,13.30
2008,08,23,06,38,13.30
2008,08,23,06,39,13.40
2008,08,23,06,40,13.40
2008,08,23,06,41,13.40
2008,08,23,06,42,13.40
2008,08,23,06,43,13.40
2008,08,23,06,44,13.40
2008,08,23,06,45,13.40
2008,08,23,06,46,13.40
2008,08,23,06,47,13.40
2008,08,23,06,48,13.40
2008,08,23,06,49,13.50
2008,08,23,06,50,13.50
2008,08,23,06,51,13.60
2008,08,23,06,52,13.60
2008,08,23,06,53,13.60
2008,08,23,06,54,13.70
2008,08,23,06,55,13.70
2008,08,23,06,56,13.70
2008,08,23,06,57,13.80
2008,08,23,06,58,13.80
2008,08,23,06,59,13.80
2008,08,23,07,00,13.80
2008,08,23,07,01,13.80
2008,08,23,07,02,13.90
2008,08,23,07,03,13.90
2008,08,23,07,04,13.90
2008,08,23,07,05,13.90
2008,08,23,07,06,13.80
2008,08,23,07,07,13.80
2008,08,23,07,08,13.60
2008,08,23,07,09,13.50
2008,08,23,07,10,13.30
2008,08,23,07,11,13.20
2008,08,23,07,12,13.10
2008,08,23,07,13,13.00
2008,08,23,07,14,12.90
2008,08,23,07,15,12.80
2008,08,23,07,16,12.80
2008,08,23,07,17,12.70
2008,08,23,07,18,12.70
2008,08,23,07,19,12.60
2008,08,23,07,20,12.60
2008,08,23,07,21,12.60
2008,08,23,07,22,12.50
2008,08,23,07,23,12.50
2008,08,23,07,24,12.40
2008,08,23,07,25,12.40
2008,08,23,07,26,12.40
2008,08,23,07,27,12.50
2008,08,23,07,28,12.50
2008,08,23,07,29,12.50
2008,08,23,07,30,12.50
2008,08,23,07,31,12.50
2008,08,23,07,32,12.50
2008,08,23,07,33,12.50
2008,08,23,07,34,12.50
2008,08,23,07,35,12.50
2008,08,23,07,36,12.50
2008,08,23,07,37,12.60
2008,08,23,07,38,12.60
2008,08,23,07,39,12.70
2008,08,23,07,40,12.80
2008,08,23,07,41,12.80
2008,08,23,07,42,12.90
2008,08,23,07,43,13.00
2008,08,23,07,44,13.10
2008,08,23,07,45,13.20
2008,08,23,07,46,13.30
2008,08,23,07,47,13.30
2008,08,23,07,48,13.30
2008,08,23,07,49,13.30
2008,08,23,07,50,13.30
2008,08,23,07,51,13.30
2008,08,23,07,52,13.30
2008,08,23,07,53,13.20
2008,08,23,07,54,13.20
2008,08,23,07,55,13.10
2008,08,23,07,56,13.10
2008,08,23,07,57,13.00
2008,08,23,07,58,12.90
2008,08,23,07,59,12.80
2008,08,23,08,00,12.80
2008,08,23,08,01,12.80
2008,08,23,08,02,12.70
2008,08,23,08,03,12.70
2008,08,23,08,04,12.70
2008,08,23,08,05,12.80
2008,08,23,08,06,12.80
2008,08,23,08,07,12.80
2008,08,23,08,08,12.90
2008,08,23,08,09,12.90
2008,08,23,08,10,12.90
2008,08,23,08,11,13.00
2008,08,23,08,12,13.00
2008,08,23,08,13,13.10
2008,08,23,08,14,13.10
2008,08,23,08,15,13.20
2008,08,23,08,16,13.20
2008,08,23,08,17,13.30
2008,08,23,08,18,13.30
2008,08,23,08,19,13.40
2008,08,23,08,20,13.50
2008,08,23,08,21,13.50
2008,08,23,08,22,13.60
2008,08,23,08,23,13.70
2008,08,23,08,24,13.80
2008,08,23,08,25,13.80
2008,08,23,08,26,13.90
2008,08,23,08,27,13.90
2008,08,23,08,28,14.00
2008,08,23,08,29,14.10
2008,08,23,08,30,14.10
2008,08,23,08,31,14.20
2008,08,23,08,32,14.20
2008,08,23,08,33,14.20
2008,08,23,08,34,14.20
2008,08,23,08,35,14.30
2008,08,23,08,36,14.30
2008,08,23,08,37,14.40
2008,08,23,08,38,14.40
2008,08,23,08,39,14.40
2008,08,23,08,40,14.40
2008,08,23,08,41,14.30
2008,08,23,08,42,14.30
2008,08,23,08,43,14.20
2008,08,23,08,44,14.10
2008,08,23,08,45,14.00
2008,08,23,08,46,14.00
2008,08,23,08,47,13.90
2008,08,23,08,48,13.80
2008,08,23,08,49,13.70
2008,08,23,08,50,13.50
2008,08,23,08,51,13.50
2008,08,23,08,52,13.40
2008,08,23,08,53,13.40
2008,08,23,08,54,13.30
2008,08,23,08,55,13.30
2008,08,23,08,56,13.30
2008,08,23,08,57,13.30
2008,08,23,08,58,13.30
2008,08,23,08,59,13.30
2008,08,23,09,00,13.30
2008,08,23,09,01,13.30
2008,08,23,09,02,13.30
2008,08,23,09,03,13.30
2008,08,23,09,04,13.30
2008,08,23,09,05,13.30
2008,08,23,09,06,13.30
2008,08,23,09,07,13.30
2008,08,23,09,08,13.30
2008,08,23,09,09,13.40
2008,08,23,09,10,13.40
2008,08,23,09,11,13.40
2008,08,23,09,12,13.40
2008,08,23,09,13,13.40
2008,08,23,09,14,13.50
2008,08,23,09,15,13.50
2008,08,23,09,16,13.60
2008,08,23,09,17,13.60
2008,08,23,09,18,13.70
2008,08,23,09,19,13.80
2008,08,23,09,20,13.80
2008,08,23,09,21,13.90
2008,08,23,09,22,14.00
2008,08,23,09,23,14.10
2008,08,23,09,24,14.10
2008,08,23,09,25,14.20
2008,08,23,09,26,14.20
2008,08,23,09,27,14.20
2008,08,23,09,28,14.10
2008,08,23,09,29,14.10
2008,08,23,09,30,14.10
2008,08,23,09,31,14.10
2008,08,23,09,32,14.00
2008,08,23,09,33,14.00
2008,08,23,09,34,14.00
2008,08,23,09,35,14.00
2008,08,23,09,36,14.10
2008,08,23,09,37,14.10
2008,08,23,09,38,14.20
2008,08,23,09,39,14.20
2008,08,23,09,40,14.30
2008,08,23,09,41,14.30
2008,08,23,09,42,14.40
2008,08,23,09,43,14.50
2008,08,23,09,44,14.50
2008,08,23,09,45,14.50
2008,08,23,09,46,14.50
2008,08,23,09,47,14.40
2008,08,23,09,48,14.40
2008,08,23,09,49,14.30
2008,08,23,09,50,14.30
2008,08,23,09,51,14.30
2008,08,23,09,52,14.30
2008,08,23,09,53,14.30
2008,08,23,09,54,14.30
2008,08,23,09,55,14.30
2008,08,23,09,56,14.30
2008,08,23,09,57,14.30
2008,08,23,09,58,14.30
2008,08,23,09,59,14.30
2008,08,23,10,00,14.30
2008,08,23,10,01,14.40
2008,08,23,10,02,14.40
2008,08,23,10,03,14.50
2008,08,23,10,04,14.40
2008,08,23,10,05,14.40
2008,08,23,10,06,14.40
2008,08,23,10,07,14.40
2008,08,23,10,08,14.50
2008,08,23,10,09,14.60
2008,08,23,10,10,14.70
2008,08,23,10,11,14.70
2008,08,23,10,12,14.80
2008,08,23,10,13,15.00
2008,08,23,10,14,15.00
2008,08,23,10,15,15.00
2008,08,23,10,16,15.10
2008,08,23,10,17,15.30
2008,08,23,10,18,15.40
2008,08,23,10,19,15.40
2008,08,23,10,20,15.50
2008,08,23,10,21,15.60
2008,08,23,10,22,15.60
2008,08,23,10,23,15.70
2008,08,23,10,24,15.80
2008,08,23,10,25,15.80
2008,08,23,10,26,15.90
2008,08,23,10,27,16.00
2008,08,23,10,28,16.10
2008,08,23,10,29,16.10
2008,08,23,10,30,16.10
2008,08,23,10,31,16.10
2008,08,23,10,32,16.10
2008,08,23,10,33,16.10
2008,08,23,10,34,16.20
2008,08,23,10,35,16.20
2008,08,23,10,36,16.20
2008,08,23,10,37,16.20
2008,08,23,10,38,16.10
2008,08,23,10,39,16.20
2008,08,23,10,40,16.20
2008,08,23,10,41,16.30
2008,08,23,10,42,16.40
2008,08,23,10,43,16.50
2008,08,23,10,44,16.60
2008,08,23,10,45,16.70
2008,08,23,10,46,16.70
2008,08,23,10,47,16.70
2008,08,23,10,48,16.70
2008,08,23,10,49,16.70
2008,08,23,10,50,16.70
2008,08,23,10,51,16.80
2008,08,23,10,52,16.80
2008,08,23,10,53,16.80
2008,08,23,10,54,16.80
2008,08,23,10,55,16.80
2008,08,23,10,56,16.90
2008,08,23,10,57,17.10
2008,08,23,10,58,17.20
2008,08,23,10,59,17.20
2008,08,23,11,00,17.20
2008,08,23,11,01,17.20
2008,08,23,11,02,17.20
2008,08,23,11,03,17.20
2008,08,23,11,04,17.20
2008,08,23,11,05,17.30
2008,08,23,11,06,17.30
2008,08,23,11,07,17.30
2008,08,23,11,08,17.30
2008,08,23,11,09,17.30
2008,08,23,11,10,17.40
2008,08,23,11,11,17.40
2008,08,23,11,12,17.40
2008,08,23,11,13,17.40
2008,08,23,11,14,17.40
2008,08,23,11,15,17.40
2008,08,23,11,16,17.50
2008,08,23,11,17,17.50
2008,08,23,11,18,17.50
2008,08,23,11,19,17.60
2008,08,23,11,20,17.60
2008,08,23,11,21,17.60
2008,08,23,11,22,17.60
2008,08,23,11,23,17.60
2008,08,23,11,24,17.40
2008,08,23,11,25,17.30
2008,08,23,11,26,17.00
2008,08,23,11,27,16.90
2008,08,23,11,28,16.80
2008,08,23,11,29,16.60
2008,08,23,11,30,16.60
2008,08,23,11,31,16.60
2008,08,23,11,32,16.60
2008,08,23,11,33,16.60
2008,08,23,11,34,16.70
2008,08,23,11,35,16.60
2008,08,23,11,36,16.60
2008,08,23,11,37,16.60
2008,08,23,11,38,16.60
2008,08,23,11,39,16.70
2008,08,23,11,40,16.70
2008,08,23,11,41,16.80
2008,08,23,11,42,16.70
2008,08,23,11,43,16.70
2008,08,23,11,44,16.60
2008,08,23,11,45,16.70
2008,08,23,11,46,16.80
2008,08,23,11,47,16.90
2008,08,23,11,48,16.80
2008,08,23,11,49,16.70
2008,08,23,11,50,16.60
2008,08,23,11,51,16.50
2008,08,23,11,52,16.40
2008,08,23,11,53,16.40
2008,08,23,11,54,16.40
2008,08,23,11,55,16.60
2008,08,23,11,56,16.60
2008,08,23,11,57,16.80
2008,08,23,11,58,16.90
2008,08,23,11,59,17.00
2008,08,23,12,00,17.00
2008,08,23,12,01,16.90
2008,08,23,12,02,16.90
2008,08,23,12,03,16.90
2008,08,23,12,04,16.90
2008,08,23,12,05,16.90
2008,08,23,12,06,16.90
2008,08,23,12,07,16.80
2008,08,23,12,08,16.80
2008,08,23,12,09,16.90
2008,08,23,12,10,16.80
2008,08,23,12,11,16.80
2008,08,23,12,12,16.80
2008,08,23,12,13,16.70
2008,08,23,12,14,16.70
2008,08,23,12,15,16.70
2008,08,23,12,16,16.80
2008,08,23,12,17,16.90
2008,08,23,12,18,16.90
2008,08,23,12,19,16.80
2008,08,23,12,20,16.80
2008,08,23,12,21,16.70
2008,08,23,12,22,16.70
2008,08,23,12,23,16.80
2008,08,23,12,24,16.90
2008,08,23,12,25,16.90
2008,08,23,12,26,17.00
2008,08,23,12,27,17.00
2008,08,23,12,28,17.20
2008,08,23,12,29,17.30
2008,08,23,12,30,17.40
2008,08,23,12,31,17.50
2008,08,23,12,32,17.60
2008,08,23,12,33,17.70
2008,08,23,12,34,17.60
2008,08,23,12,35,17.60
2008,08,23,12,36,17.60
2008,08,23,12,37,17.60
2008,08,23,12,38,17.50
2008,08,23,12,39,17.40
2008,08,23,12,40,17.40
2008,08,23,12,41,17.40
2008,08,23,12,42,17.50
2008,08,23,12,43,17.60
2008,08,23,12,44,17.50
2008,08,23,12,45,17.50
2008,08,23,12,46,17.50
2008,08,23,12,47,17.50
2008,08,23,12,48,17.40
2008,08,23,12,49,17.40
2008,08,23,12,50,17.50
2008,08,23,12,51,17.60
2008,08,23,12,52,17.70
2008,08,23,12,53,17.80
2008,08,23,12,54,17.80
2008,08,23,12,55,17.90
2008,08,23,12,56,17.90
2008,08,23,12,57,17.90
2008,08,23,12,58,17.90
2008,08,23,12,59,18.00
2008,08,23,13,00,18.00
2008,08,23,13,01,17.90
2008,08,23,13,02,17.90
2008,08,23,13,03,17.90
2008,08,23,13,04,17.90
2008,08,23,13,05,17.90
2008,08,23,13,06,17.80
2008,08,23,13,07,17.90
2008,08,23,13,08,17.90
2008,08,23,13,09,17.90
2008,08,23,13,10,17.90
2008,08,23,13,11,17.90
2008,08,23,13,12,17.90
2008,08,23,13,13,17.90
2008,08,23,13,14,17.90
2008,08,23,13,15,17.90
2008,08,23,13,16,17.90
2008,08,23,13,17,17.90
2008,08,23,13,18,18.00
2008,08,23,13,19,18.00
2008,08,23,13,20,18.00
2008,08,23,13,21,18.10
2008,08,23,13,22,18.10
2008,08,23,13,23,18.20
2008,08,23,13,24,18.20
2008,08,23,13,25,18.20
2008,08,23,13,26,18.30
2008,08,23,13,27,18.40
2008,08,23,13,28,18.40
2008,08,23,13,29,18.50
2008,08,23,13,30,18.60
2008,08,23,13,31,18.70
2008,08,23,13,32,18.70
2008,08,23,13,33,18.60
2008,08,23,13,34,18.50
2008,08,23,13,35,18.40
2008,08,23,13,36,18.40
2008,08,23,13,37,18.50
2008,08,23,13,38,18.60
2008,08,23,13,39,18.70
2008,08,23,13,40,18.70
2008,08,23,13,41,18.70
2008,08,23,13,42,18.70
2008,08,23,13,43,18.70
2008,08,23,13,44,18.80
2008,08,23,13,45,18.90
2008,08,23,13,46,18.90
2008,08,23,13,47,18.90
2008,08,23,13,48,19.00
2008,08,23,13,49,19.10
2008,08,23,13,50,19.20
2008,08,23,13,51,19.20
2008,08,23,13,52,19.20
2008,08,23,13,53,19.20
2008,08,23,13,54,19.20
2008,08,23,13,55,19.20
2008,08,23,13,56,19.20
2008,08,23,13,57,19.10
2008,08,23,13,58,19.10
2008,08,23,13,59,19.10
2008,08,23,14,00,19.10
2008,08,23,14,01,19.10
2008,08,23,14,02,19.00
2008,08,23,14,03,18.80
2008,08,23,14,04,18.80
2008,08,23,14,05,18.90
2008,08,23,14,06,18.90
2008,08,23,14,07,18.90
2008,08,23,14,08,18.80
2008,08,23,14,09,18.90
2008,08,23,14,10,18.90
2008,08,23,14,11,19.00
2008,08,23,14,12,19.10
2008,08,23,14,13,19.20
2008,08,23,14,14,19.20
2008,08,23,14,15,19.30
2008,08,23,14,16,19.20
2008,08,23,14,17,19.00
2008,08,23,14,18,18.90
2008,08,23,14,19,18.90
2008,08,23,14,20,19.00
2008,08,23,14,21,19.00
2008,08,23,14,22,19.00
2008,08,23,14,23,19.00
2008,08,23,14,24,18.90
2008,08,23,14,25,18.90
2008,08,23,14,26,18.90
2008,08,23,14,27,18.80
2008,08,23,14,28,18.90
2008,08,23,14,29,18.90
2008,08,23,14,30,19.00
2008,08,23,14,31,19.10
2008,08,23,14,32,19.10
2008,08,23,14,33,18.90
2008,08,23,14,34,18.90
2008,08,23,14,35,18.80
2008,08,23,14,36,18.70
2008,08,23,14,37,18.80
2008,08,23,14,38,18.80
2008,08,23,14,39,18.90
2008,08,23,14,40,18.90
2008,08,23,14,41,19.00
2008,08,23,14,42,19.10
2008,08,23,14,43,19.00
2008,08,23,14,44,18.80
2008,08,23,14,45,18.80
2008,08,23,14,46,18.80
2008,08,23,14,47,18.70
2008,08,23,14,48,18.70
2008,08,23,14,49,18.60
2008,08,23,14,50,18.40
2008,08,23,14,51,18.30
2008,08,23,14,52,18.20
2008,08,23,14,53,18.10
2008,08,23,14,54,18.00
2008,08,23,14,55,18.00
2008,08,23,14,56,18.10
2008,08,23,14,57,18.10
2008,08,23,14,58,18.20
2008,08,23,14,59,18.30
2008,08,23,15,00,18.40
2008,08,23,15,01,18.40
2008,08,23,15,02,18.50
2008,08,23,15,03,18.60
2008,08,23,15,04,18.60
2008,08,23,15,05,18.70
2008,08,23,15,06,18.70
2008,08,23,15,07,18.80
2008,08,23,15,08,18.80
2008,08,23,15,09,18.80
2008,08,23,15,10,18.90
2008,08,23,15,11,18.90
2008,08,23,15,12,18.80
2008,08,23,15,13,18.70
2008,08,23,15,14,18.70
2008,08,23,15,15,18.70
2008,08,23,15,16,18.70
2008,08,23,15,17,18.60
2008,08,23,15,18,18.60
2008,08,23,15,19,18.50
2008,08,23,15,20,18.30
2008,08,23,15,21,18.20
2008,08,23,15,22,18.10
2008,08,23,15,23,18.00
2008,08,23,15,24,17.90
2008,08,23,15,25,17.90
2008,08,23,15,26,17.90
2008,08,23,15,27,17.80
2008,08,23,15,28,17.70
2008,08,23,15,29,17.60
2008,08,23,15,30,17.60
2008,08,23,15,31,17.50
2008,08,23,15,32,17.50
2008,08,23,15,33,17.60
2008,08,23,15,34,17.60
2008,08,23,15,35,17.70
2008,08,23,15,36,17.70
2008,08,23,15,37,17.70
2008,08,23,15,38,17.70
2008,08,23,15,39,17.70
2008,08,23,15,40,17.70
2008,08,23,15,41,17.60
2008,08,23,15,42,17.50
2008,08,23,15,43,17.50
2008,08,23,15,44,17.40
2008,08,23,15,45,17.50
2008,08,23,15,46,17.50
2008,08,23,15,47,17.70
2008,08,23,15,48,17.80
2008,08,23,15,49,17.90
2008,08,23,15,50,18.10
2008,08,23,15,51,18.30
2008,08,23,15,52,18.50
2008,08,23,15,53,18.60
2008,08,23,15,54,18.70
2008,08,23,15,55,18.90
2008,08,23,15,56,18.90
2008,08,23,15,57,19.10
2008,08,23,15,58,19.20
2008,08,23,15,59,19.20
2008,08,23,16,00,19.30
2008,08,23,16,01,19.30
2008,08,23,16,02,19.30
2008,08,23,16,03,19.30
2008,08,23,16,04,19.30
2008,08,23,16,05,19.30
2008,08,23,16,06,19.40
2008,08,23,16,07,19.40
2008,08,23,16,08,19.40
2008,08,23,16,09,19.40
2008,08,23,16,10,19.40
2008,08,23,16,11,19.40
2008,08,23,16,12,19.30
2008,08,23,16,13,19.40
2008,08,23,16,14,19.40
2008,08,23,16,15,19.40
2008,08,23,16,16,19.50
2008,08,23,16,17,19.50
2008,08,23,16,18,19.50
2008,08,23,16,19,19.50
2008,08,23,16,20,19.40
2008,08,23,16,21,19.30
2008,08,23,16,22,19.20
2008,08,23,16,23,19.00
2008,08,23,16,24,18.80
2008,08,23,16,25,18.70
2008,08,23,16,26,18.60
2008,08,23,16,27,18.50
2008,08,23,16,28,18.30
2008,08,23,16,29,18.20
2008,08,23,16,30,18.10
2008,08,23,16,31,18.20
2008,08,23,16,32,18.20
2008,08,23,16,33,18.30
2008,08,23,16,34,18.40
2008,08,23,16,35,18.40
2008,08,23,16,36,18.40
2008,08,23,16,37,18.50
2008,08,23,16,38,18.60
2008,08,23,16,39,18.60
2008,08,23,16,40,18.60
2008,08,23,16,41,18.60
2008,08,23,16,42,18.70
2008,08,23,16,43,18.80
2008,08,23,16,44,18.80
2008,08,23,16,45,18.80
2008,08,23,16,46,18.90
2008,08,23,16,47,18.90
2008,08,23,16,48,18.90
2008,08,23,16,49,18.90
2008,08,23,16,50,18.90
2008,08,23,16,51,18.90
2008,08,23,16,52,18.80
2008,08,23,16,53,18.70
2008,08,23,16,54,18.60
2008,08,23,16,55,18.40
2008,08,23,16,56,18.30
2008,08,23,16,57,18.20
2008,08,23,16,58,18.10
2008,08,23,16,59,18.00
2008,08,23,17,00,17.90
2008,08,23,17,01,17.90
2008,08,23,17,02,17.90
2008,08,23,17,03,17.80
2008,08,23,17,04,17.80
2008,08,23,17,05,17.80
2008,08,23,17,06,17.80
2008,08,23,17,07,17.80
2008,08,23,17,08,17.80
2008,08,23,17,09,17.90
2008,08,23,17,10,18.00
2008,08,23,17,11,18.10
2008,08,23,17,12,18.10
2008,08,23,17,13,18.10
2008,08,23,17,14,18.00
2008,08,23,17,15,18.10
2008,08,23,17,16,18.10
2008,08,23,17,17,18.10
2008,08,23,17,18,18.20
2008,08,23,17,19,18.20